Other Public Products
Issued by NWS Grand Forks, ND

Home | Current Version | Previous Version | Text Only | Print | Product List | Glossary Off
Versions: 1 2 3 4 5 6 7 8 9 10 11 12 13 14 15 16 17 18 19 20 21 22 23 24 25 26 27 28 29 30 31 32 33 34 35 36 37 38 39 40 41 42 43 44 45 46 47 48 49 50

000
FPUS83 KFGF 291510
OPUFGF
PRAIRIE TO PINES WEATHER ROUNDUP
NATIONAL WEATHER SERVICE EASTERN NORTH DAKOTA/GRAND FORKS ND
1000 AM CDT SUN MAR 29 2015

 **SATELLITE DATA USED TO AUGMENT SKY COVER AT AUTOMATED STATIONS**
 *****  WEATHER ACROSS EASTERN NORTH DAKOTA  *****

CITY           SKY/WX    TMP DP  RH WIND       PRES   REMARKS
GRAND FORKS    PTSUNNY   41  34  76 N28G39    29.77R
GRAND FORKS AF NOT AVBL
GRAND CITY NWS   N/A     39 N/A N/A N26         N/A
BUXTON         NOT AVBL
DEVILS LAKE    SUNNY     41  34  75 NW22G29   29.87R
FARGO          LGT RAIN  43  35  73 NW30G38   29.77R
WAHPETON ARPT  CLOUDY    39  34  81 N32G38    29.75R
$$

 *****  WEATHER ACROSS CENTRAL AND WESTERN NORTH DAKOTA  *****

CITY           SKY/WX    TMP DP  RH WIND       PRES   REMARKS
JAMESTOWN      SUNNY     42  35  76 NW30G40   29.88R
BISMARCK       SUNNY     44  33  65 NW21G30   30.02R
MINOT          SUNNY     44  31  60 W21G28    29.98R
MINOT AFB      SUNNY     42  36  79 NW23      29.98R
GARRISON         N/A     42  35  76 NW21G30   30.02R
WILLISTON      MOSUNNY   42  36  79 W17       30.06S
DICKINSON      SUNNY     40  35  83 NW20      30.07S
HETTINGER      MOSUNNY   42  34  73 NW17      30.11R
$$

 *****  OTHER OBSERVATIONS NORTHEAST NORTH DAKOTA  *****

CITY           SKY/WX    TMP DP  RH WIND       PRES   REMARKS
WALHALLA         N/A     41  41 100 NW21G30   29.81R
LANGDON        NOT AVBL
CAVALIER       CLOUDY    39  34  81 N21G31    29.80R
GRAFTON        NOT AVBL
CANDO          NOT AVBL
FORT TOTTEN      N/A     40  34  80 NW10      29.95S
ROLLA          FAIR      39  32  75 NW23G33   29.88R
RUGBY          FAIR      39  32  75 NW23G36   29.93R
 ***** THE ABOVE OBSERVATIONS ARE NON NWS ARE NOT QUALITY
        CONTROLLED AND MAY MIS-REPORT RAIN FOR SNOW...
$$

 *****  OTHER OBSERVATIONS SOUTHEAST NORTH DAKOTA *****

CITY           SKY/WX    TMP DP  RH WIND       PRES   REMARKS
COOPERSTOWN    NOT AVBL
VALLEY CITY    FAIR      41  39  93 NW30G37   29.84R
OAKES            N/A     41  39  93 NW30G40   29.86R
GWINNER        SUNNY     45  39  81 NW36G45     N/A
BUFFALO        NOT AVBL
WYNDMERE         N/A     43  37  81 NW23        N/A
 ***** THE ABOVE OBSERVATIONS ARE NON NWS ARE NOT QUALITY
       CONTROLLED AND MAY MIS-REPORT RAIN FOR SNOW...
$$

  *****  WEATHER ACROSS NORTHERN MINNESOTA  *****

CITY           SKY/WX    TMP DP  RH WIND       PRES   REMARKS
FLAG ISLAND    CLOUDY    34  30  86 NW29      29.59R WCI  20
WARROAD        CLOUDY    34  30  86 NW28G38   29.62R WCI  20
ROSEAU         CLOUDY    36  30  80 NW22G33   29.65R
HALLOCK        CLOUDY    37  34  87 NW28G38   29.74R
THF RVR FALLS  CLOUDY    37  32  81 NW30G37   29.70R
HALSTAD        NOT AVBL
FOSSTON        CLOUDY    36  32  87 NW21G35   29.67R
BAUDETTE       CLOUDY    35  31  85 NW28G39   29.55R WCI  22
WASKISH        CLOUDY    36  34  93 NW20G28   29.57R
CROOKSTON      CLOUDY    37  34  87 N32G44    29.75R
$$
  *****  WEATHER ACROSS CENTRAL AND WEST MINNESOTA  *****

CITY           SKY/WX    TMP DP  RH WIND       PRES   REMARKS
BEMIDJI        CLOUDY    36  34  91 NW30G36   29.57R
PARK RAPIDS    CLOUDY    39  35  86 NW26G47   29.56R
WADENA         CLOUDY    36  34  93 NW23G33   29.59R
DETROIT LAKES  CLOUDY    36  34  93 NW30G41   29.68R
MOORHEAD       PTSUNNY   39  37  93 NW32G41   29.76R
FERGUS FALLS   CLOUDY    37  37 100 NW32G41   29.72R
ELBOW LAKE     CLOUDY    37  34  90 NW28G37   29.70R
MORRIS MN      CLOUDY    41  37  87 NW33G43   29.68R
STAPLES        LGT RAIN  37  37 100 NW23G31   29.55R
WHEATON        CLOUDY    39  34  81 NW31G39   29.78R
$$
  *****  WEATHER ELSEWHERE ACROSS MINNESOTA  *****

CITY           SKY/WX    TMP DP  RH WIND       PRES   REMARKS
DULUTH         LGT SNOW  34  31  88 SW15      29.46F FOG     WCI  24
INTRNTL FALLS  LGT RAIN  36  33  89 NW17G26   29.47R
ELY            LGT SNOW  32  30  93 SW12      29.43S VSB 1   WCI  23
CLOQUET        CLOUDY    34  32  93 SW12G20   29.47S FOG
BRAINERD       RAIN      37  35  92 NW21G31   29.52R FOG
HIBBING        SNOW      33  31  92 W5        29.45S VSB 1/2
ALEXANDRIA     CLOUDY    38  34  85 NW26G45   29.63R
SAINT CLOUD    LGT RAIN  42  37  82 W15       29.51F
MINNEAPOLIS    PTSUNNY   42  35  76 SW15G21   29.58F
$$

  *****  WEATHER ACROSS SOUTH DAKOTA  *****

CITY           SKY/WX    TMP DP  RH WIND       PRES   REMARKS
SIOUX FALLS    CLOUDY    47  39  74 NW35G46   29.82R
BROOKINGS      NOT AVBL
WATERTOWN      CLOUDY    40  37  89 NW28G37   29.82R
HURON          CLOUDY    44  36  73 NW31G47   29.93R
SISSETON         N/A     43  38  82 N29G44    29.79R
ABERDEEN       MOSUNNY   45  37  73 NW31G40   29.95R
MITCHELL       CLOUDY    46  37  71 NW33G45   29.93R
PIERRE         MOSUNNY   46  31  55 NW31G41   30.08R
MOBRIDGE       SUNNY     45  34  65 NW28G37   30.01R
RAPID CITY     SUNNY     47  33  58 N23G35    30.19R
$$

  *****  SOME WEATHER IN NEARBY STATES *****

CITY           SKY/WX    TMP DP  RH WIND       PRES   REMARKS
GLASGOW MT     SUNNY     40  36  86 NW5       30.12R
GREAT FALLS MT CLOUDY    45  27  49 SW16      30.16S
CHEYENNE WY    SUNNY     43  17  35 N16G24    30.29S
SCOTTSBLUFF NE SUNNY     49  31  49 NW25G32   30.26R
OMAHA NE       CLOUDY    51  39  63 W12       29.92R
DES MOINES IA  CLOUDY    45  38  76 SW15G25   29.87F
DAVENPORT IA   CLOUDY    34  27  75 S28G37    29.89F WCI  21
CHICAGO IL     CLOUDY    36  17  46 S20G33    30.04F
EAU CLAIRE WI  CLOUDY    35  30  82 S13       29.63F
LA CROSSE WI   CLOUDY    37  31  78 S14G24    29.73F
$$

  *****  SOME NATIONAL WEATHER *****

CITY           SKY/WX    TMP DP  RH WIND       PRES   REMARKS
LA GUARDIA NY  SUNNY     34   4  28 N9        30.28F
RALEIGH NC     SUNNY     38   9  30 VRB5      30.45R
ATLANTA GA     MOSUNNY   46  15  28 S7        30.41R
NEW ORLEANS LA MOSUNNY   67  53  61 SE18      30.30R
OKLAHOMA CITY  MOSUNNY   58  45  62 S21       29.94S
ALBUQUERQUE NM MOSUNNY   57  18  21 SE5       30.26R
SALT LAKE CITY SUNNY     45  26  47 S3        30.33R
LOS ANGELES CA FOG       57  57 100 NE7       30.06S VSB 1/2
BOISE ID       PTSUNNY   42  28  57 CALM      30.33R
SEATTLE WA     CLOUDY    49  43  80 S7        30.27R
$$

*** WEATHER ACROSS MANITOBA...SASKATCHEWAN AND ONTARIO ***
                ***ONTARIO***

CITY           SKY/WX    TMP DP  RH WIND       PRES   REMARKS
GERALDTON      SNOW      28  27  93 S16G25    29.43F VSB 1/2 WCI  17
THUNDER BAY    SNOW      32  30  93 SW7       29.46F VSB 1/2
SIOUX LOOKOUT  LGT SNOW  32  32 100 NW12G20   29.37S VSB 1   WCI  23
TORONTO        MOSUNNY   36  14  41 SW9G17    30.24F
BIG TROUT LK   NOT AVBL
PICKLE LAKE    LGT SNOW  32  30  93 W7        29.33R VSB 3/4
DRYDEN         LGT SNOW  34  32  93 NW13G21   29.42R WCI  25
KENORA         FLURRIES  34  32  93 NW20G26   29.54R WCI  22
$$
                *** MANITOBA***

CITY           SKY/WX    TMP DP  RH WIND       PRES   REMARKS
BRANDON        SUNNY     39  32  75 NW16G22   29.89R
DAUPHIN        SUNNY     37  30  75 W15       29.85S
ISLAND LAKE    PTSUNNY   30  27  86 NW16G26   29.60R WCI  19
PILOT MOUND      N/A     39  34  81 NW24G33     N/A
THE PAS        SUNNY     37  25  60 NW12      29.76S
THOMPSON       PTSUNNY   27  23  86 N9        29.69R WCI  17
WINNIPEG       PTSUNNY   37  32  81 NW22G29   29.77R
LYNN LAKE      CLOUDY    27  23  86 NE8       29.72R WCI  18
CHURCHILL      MOSUNNY    5  -2  72 N17       29.83R WCI -14
GILLAM         LGT SNOW  14   9  79 N17       29.69R VSB 3/4 WCI  -3
$$
                ***SASKATCHEWAN***

CITY           SKY/WX    TMP DP  RH WIND       PRES   REMARKS
ESTEVAN        MOSUNNY   39  34  81 W15       30.01S
KINDERSLEY     MOSUNNY   36  32  87 S7        29.97F
LLOYDMINSTER   PTSUNNY   37  32  81 SW9       29.90F
PRINCE ALBERT  MOSUNNY   39  30  70 W8        29.91S
REGINA         MOSUNNY   37  36  93 W14G20    30.00R
YORKTON        PTSUNNY   37  28  70 W10       29.89S



USA.gov is the U.S. government's official web portal to all federal, state and local government web resources and services.